Weather History for Hurlburt Field, FL

Change the Weather History Date:

Friday, September 16, 2011

  Actual Average Record
Temperature  
Mean Temperature 70 °F -  
Max Temperature 81 °F 85 °F 93 °F (1997)
Min Temperature 60 °F 68 °F 59 °F (1999)
Cooling Degree Days 6    
Growing Degree Days 20 (Base 50)    
Moisture  
Dew Point 63 °F    
Average Humidity 79    
Maximum Humidity 98    
Minimum Humidity 54    
Precipitation  
Precipitation 0.00 in - - ()
Sea Level Pressure  
Sea Level Pressure 30.09 in    
Wind  
Wind Speed 5 mph (North)    
Max Wind Speed 12 mph    
Max Gust Speed -    
Visibility 10 miles    
Events      
Averages and records for this station are not official NWS values.
T = Trace of Precipitation, MM = Missing Value Source: NWS Daily Summary

Daily Weather History Graph

Daily Weather History Graph

Search for Another Location

Airport:

Trip Planner

Search our weather history database for the weather conditions in past years. The results will help you decide how hot, cold, wet, or windy it might be!

Date:

Astronomy

Sep. 16, 2011 Rise Set
Actual Time 6:31 AM CDT 6:51 PM CDT
Civil Twilight 6:07 AM CDT 7:15 PM CDT
Nautical Twilight 5:39 AM CDT 7:43 PM CDT
Astronomical Twilight 5:10 AM CDT 8:11 PM CDT
Moon 9:05 PM CDT (9/16) 10:13 AM CDT (9/16)
Length of Visible Light 13h 07m
Length of Day
12h 19m
Waning Gibbous, 84% of the Moon is Illuminated
Sep 16
Waning Gibbous
Sep 20
Last Quarter
Sep 27
New
Oct 3
First Quarter
Oct 11
Full

Hourly Weather History & Observations

Time (CDT) Temp. Heat Index Dew Point Humidity Pressure Visibility Wind Dir Wind Speed Gust Speed Precip Events Conditions
12:55 AM 64.9 °F - 60.8 °F 86% 30.04 in 10.0 mi North 10.4 mph - N/A   Clear
1:55 AM 63.5 °F - 60.3 °F 89% 30.04 in 10.0 mi North 5.8 mph - N/A   Clear
2:55 AM 63.1 °F - 59.9 °F 89% 30.04 in 10.0 mi Calm Calm - N/A   Clear
3:09 AM 62.6 °F - 60.8 °F 94% 30.04 in 10.0 mi NNE 3.5 mph - N/A   Mostly Cloudy
3:38 AM 62.6 °F - 60.8 °F 94% 30.05 in 10.0 mi North 3.5 mph - N/A   Scattered Clouds
3:55 AM 62.6 °F - 60.3 °F 92% 30.05 in 10.0 mi North 4.6 mph - N/A   Partly Cloudy
4:55 AM 60.8 °F - 59.9 °F 97% 30.05 in 10.0 mi North 3.5 mph - N/A   Clear
5:55 AM 60.1 °F - 59.5 °F 98% 30.07 in 10.0 mi NNW 4.6 mph - N/A   Clear
6:55 AM 60.4 °F - 59.7 °F 97% 30.09 in 10.0 mi NNW 3.5 mph - N/A   Clear
7:55 AM 64.0 °F - 62.4 °F 94% 30.10 in 10.0 mi North 4.6 mph - N/A   Clear
8:55 AM 68.0 °F - 61.9 °F 81% 30.11 in 10.0 mi Variable 4.6 mph - N/A   Partly Cloudy
9:08 AM 68.0 °F - 62.6 °F 83% 30.11 in 10.0 mi Calm Calm - N/A   Mostly Cloudy
9:55 AM 69.3 °F - 62.1 °F 78% 30.13 in 10.0 mi Calm Calm - N/A   Overcast
10:55 AM 72.0 °F - 62.1 °F 71% 30.13 in 10.0 mi WNW 5.8 mph - N/A   Overcast
11:12 AM 71.6 °F - 62.6 °F 73% 30.12 in 10.0 mi Calm Calm - N/A   Scattered Clouds
11:22 AM 73.4 °F - 62.6 °F 69% 30.12 in 10.0 mi Variable 3.5 mph - N/A   Light Drizzle
11:24 AM 73.4 °F - 62.6 °F 69% 30.13 in 10.0 mi North 3.5 mph - N/A   Light Drizzle
11:30 AM 73.4 °F - 62.6 °F 69% 30.13 in 10.0 mi Variable 4.6 mph - N/A   Light Drizzle
11:32 AM 73.4 °F - 62.6 °F 69% 30.13 in 10.0 mi NE 4.6 mph - N/A   Scattered Clouds
11:33 AM 73.4 °F - 62.6 °F 69% 30.13 in 10.0 mi ENE 4.6 mph - N/A   Mostly Cloudy
11:46 AM 73.4 °F - 62.6 °F 69% 30.11 in 10.0 mi North 5.8 mph - N/A   Scattered Clouds
11:55 AM 75.2 °F - 62.6 °F 65% 30.12 in 10.0 mi West 4.6 mph - N/A   Scattered Clouds
12:55 PM 76.5 °F - 64.0 °F 65% 30.10 in 10.0 mi WSW 6.9 mph - N/A   Clear
1:55 PM 76.8 °F - 64.4 °F 65% 30.09 in 10.0 mi SW 10.4 mph - N/A   Clear
2:55 PM 78.8 °F - 65.5 °F 64% 30.07 in 10.0 mi SSW 5.8 mph - N/A   Clear
3:55 PM 81.5 °F 82.8 °F 63.5 °F 54% 30.06 in 10.0 mi North 8.1 mph - N/A   Clear
4:55 PM 81.3 °F 82.7 °F 63.7 °F 55% 30.05 in 10.0 mi North 6.9 mph - N/A   Clear
5:55 PM 79.2 °F - 65.7 °F 63% 30.05 in 10.0 mi North 6.9 mph - N/A   Clear
6:55 PM 74.7 °F - 65.7 °F 73% 30.06 in 10.0 mi NNE 11.5 mph - N/A   Partly Cloudy
7:55 PM 70.3 °F - 64.9 °F 83% 30.07 in 10.0 mi North 6.9 mph - N/A   Partly Cloudy
8:55 PM 69.4 °F - 64.2 °F 83% 30.09 in 10.0 mi North 6.9 mph - N/A   Clear
9:55 PM 66.6 °F - 64.6 °F 93% 30.10 in 10.0 mi North 6.9 mph - N/A   Clear
10:55 PM 66.2 °F - 64.4 °F 94% 30.09 in 10.0 mi North 6.9 mph - N/A   Clear
11:55 PM 65.1 °F - 63.9 °F 96% 30.09 in 10.0 mi North 5.8 mph - N/A   Clear